CW2931 Weather Reports


Display with metric or nautical units.
time (UTC)temp
F
wind
direction
speed
MPH
gust
MPH
rain 1hr
in
rain 24hr
in
rain mn
in
humidity
%
barometer
mb
20180922211109 63 119 1.0 3.0 0.00 0.00 0.00 63 1023.6
20180922210116 63 119 0.0 0.0 0.00 0.00 0.00 64 1023.5
20180922205108 63 119 0.0 0.0 0.00 0.00 0.00 62 1023.7
20180922204109 63 119 0.0 2.0 0.00 0.00 0.00 63 1023.8
20180922203109 63 118 1.0 3.0 0.00 0.00 0.00 61 1023.9
20180922202109 63 171 1.0 3.0 0.00 0.00 0.00 61 1024.0
20180922201108 63 156 1.0 3.0 0.00 0.00 0.00 63 1024.0
20180922200116 63 156 2.0 3.0 0.00 0.00 0.00 60 1024.0
20180922195109 63 81 1.0 3.0 0.00 0.00 0.00 60 1024.1
20180922194109 63 112 0.0 6.0 0.00 0.00 0.00 61 1024.2
20180922193108 64 129 0.0 3.0 0.00 0.00 0.00 60 1024.5
20180922192109 64 95 1.0 3.0 0.00 0.00 0.00 59 1024.5
20180922191109 65 133 0.0 2.0 0.00 0.00 0.00 60 1024.6
20180922190116 65 91 1.0 3.0 0.00 0.00 0.00 58 1024.7
20180922185109 66 338 1.0 3.0 0.00 0.00 0.00 59 1024.9
20180922184109 66 85 1.0 3.0 0.00 0.00 0.00 57 1025.0
20180922183109 66 121 1.0 3.0 0.00 0.00 0.00 59 1025.1
20180922182111 63 121 2.0 3.0 0.00 0.00 0.00 61 1025.2
20180922181109 63 124 0.0 1.0 0.00 0.00 0.00 61 1025.4
20180922180116 64 124 1.0 3.0 0.00 0.00 0.00 57 1025.5
20180922175109 64 115 0.0 3.0 0.00 0.00 0.00 60 1025.6
20180922174110 64 124 1.0 3.0 0.00 0.00 0.00 61 1025.6
20180922173109 65 124 0.0 3.0 0.00 0.00 0.00 60 1025.6
20180922172109 65 91 1.0 3.0 0.00 0.00 0.00 61 1025.6
20180922171109 64 81 0.0 2.0 0.00 0.00 0.00 61 1025.6
20180922170116 64 80 1.0 2.0 0.00 0.00 0.00 61 1025.5
20180922165109 64 115 1.0 3.0 0.00 0.00 0.00 62 1025.6
20180922164109 64 123 0.0 1.0 0.00 0.00 0.00 60 1025.7
20180922163109 64 121 0.0 0.0 0.00 0.00 0.00 60 1025.7
20180922162109 65 343 0.0 0.0 0.00 0.00 0.00 61 1025.9
20180922161109 64 343 0.0 0.0 0.00 0.00 0.00 61 1025.8
20180922160117 64 339 0.0 0.0 0.00 0.00 0.00 61 1026.0
20180922155108 63 338 0.0 0.0 0.00 0.00 0.00 60 1026.0
20180922154109 63 338 0.0 0.0 0.00 0.00 0.00 62 1026.0
20180922153109 63 339 0.0 0.0 0.00 0.00 0.00 63 1026.0
20180922152110 62 336 0.0 0.0 0.00 0.00 0.00 63 1026.0
20180922151109 62 334 0.0 0.0 0.00 0.00 0.00 64 1026.1
20180922150116 61 334 0.0 0.0 0.00 0.00 0.00 65 1026.1
20180922145109 61 327 0.0 0.0 0.00 0.00 0.00 65 1026.1
20180922144109 61 331 0.0 0.0 0.00 0.00 0.00 65 1026.1
20180922143109 60 329 0.0 0.0 0.00 0.00 0.00 65 1026.0
20180922142109 60 318 0.0 0.0 0.00 0.00 0.00 66 1026.0
20180922141109 59 321 0.0 0.0 0.00 0.00 0.00 66 1026.0
20180922140116 59 329 0.0 0.0 0.00 0.00 0.00 67 1026.0
20180922135109 58 333 0.0 0.0 0.00 0.00 0.00 68 1025.9
20180922134110 57 335 0.0 0.0 0.00 0.00 0.00 69 1025.9
20180922133111 57 338 0.0 0.0 0.00 0.00 0.00 70 1025.9
20180922132109 56 338 0.0 0.0 0.00 0.00 0.00 72 1025.8
20180922131109 56 338 0.0 0.0 0.00 0.00 0.00 71 1025.7
20180922130116 55 338 0.0 0.0 0.00 0.00 0.00 72 1025.6
20180922125109 55 338 0.0 0.0 0.00 0.00 0.00 73 1025.6
20180922124109 55 337 0.0 0.0 0.00 0.00 0.00 72 1025.5
20180922123109 55 337 0.0 0.0 0.00 0.00 0.00 73 1025.4
20180922122109 55 337 0.0 0.0 0.00 0.00 0.00 72 1025.3
20180922121109 55 334 0.0 0.0 0.00 0.00 0.00 72 1025.2
20180922120116 55 300 0.0 0.0 0.00 0.00 0.00 71 1024.8
20180922115109 55 302 0.0 0.0 0.00 0.00 0.00 71 1024.8
20180922114109 55 286 0.0 0.0 0.00 0.00 0.00 71 1024.8
20180922113110 55 290 0.0 0.0 0.00 0.00 0.00 71 1024.8
20180922112109 55 286 0.0 0.0 0.00 0.00 0.00 72 1024.6
20180922111109 55 291 0.0 0.0 0.00 0.00 0.00 71 1024.5
20180922110116 55 292 0.0 0.0 0.00 0.00 0.00 71 1024.5
20180922105109 56 5 0.0 0.0 0.00 0.00 0.00 71 1024.3
20180922104109 56 5 0.0 0.0 0.00 0.00 0.00 71 1024.4
20180922103111 56 11 0.0 0.0 0.00 0.00 0.00 71 1024.4
20180922102114 56 0 0.0 0.0 0.00 0.00 0.00 72 1024.3
20180922101109 56 316 0.0 0.0 0.00 0.00 0.00 73 1024.2
20180922100117 56 9 0.0 0.0 0.00 0.00 0.00 74 1024.1
20180922095109 56 9 0.0 0.0 0.00 0.00 0.00 74 1024.1
20180922094110 56 9 0.0 0.0 0.00 0.00 0.00 73 1023.9
20180922093112 56 10 0.0 0.0 0.00 0.00 0.00 73 1023.9
20180922092112 56 10 0.0 0.0 0.00 0.00 0.00 74 1023.7
20180922091110 56 10 0.0 0.0 0.00 0.00 0.00 74 1023.7
20180922090116 56 10 0.0 0.0 0.00 0.00 0.00 74 1023.6
20180922085109 56 10 0.0 0.0 0.00 0.00 0.00 73 1023.5
20180922084110 56 10 0.0 0.0 0.00 0.00 0.00 72 1023.2
20180922083109 56 10 0.0 2.0 0.00 0.00 0.00 71 1023.1
20180922082110 56 5 1.0 3.0 0.00 0.00 0.00 71 1022.9
20180922081109 57 312 1.0 2.0 0.00 0.00 0.00 70 1022.6
20180922080116 57 285 1.0 3.0 0.00 0.00 0.00 69 1022.6
20180922075110 57 342 1.0 3.0 0.00 0.00 0.00 68 1022.5
20180922074110 57 351 2.0 5.0 0.00 0.00 0.00 69 1022.2
20180922073109 57 5 2.0 3.0 0.00 0.00 0.00 71 1022.0
20180922072109 57 9 2.0 3.0 0.00 0.00 0.00 72 1022.0
20180922071109 58 22 1.0 2.0 0.00 0.00 0.00 73 1021.9
20180922070116 58 24 0.0 2.0 0.00 0.00 0.00 73 1021.7
20180922065110 58 24 1.0 2.0 0.00 0.00 0.00 72 1021.5
20180922064110 59 24 0.0 0.0 0.00 0.00 0.00 72 1021.4
20180922063110 59 24 1.0 3.0 0.00 0.00 0.00 71 1021.4
20180922062109 59 24 1.0 3.0 0.00 0.00 0.00 71 1021.4
20180922061110 60 24 1.0 3.0 0.00 0.00 0.00 70 1021.3
20180922060116 60 15 2.0 3.0 0.00 0.00 0.00 69 1021.2
20180922055109 60 13 2.0 3.0 0.00 0.00 0.00 68 1021.1
20180922054109 60 11 0.0 3.0 0.00 0.00 0.00 66 1021.0
20180922053109 61 5 1.0 3.0 0.00 0.00 0.00 66 1020.9
20180922052109 61 0 2.0 3.0 0.00 0.00 0.00 65 1020.8
20180922051110 61 0 2.0 3.0 0.00 0.00 0.00 64 1020.7
20180922050117 62 15 3.0 6.0 0.00 0.00 0.00 64 1020.5
20180922045109 62 337 3.0 7.0 0.00 0.00 0.00 66 1020.4
20180922044109 62 24 1.0 3.0 0.00 0.00 0.00 69 1020.3
20180922043109 62 9 2.0 5.0 0.00 0.00 0.00 71 1020.2
20180922042110 63 340 1.0 3.0 0.00 0.00 0.00 74 1019.8
20180922041110 63 11 1.0 3.0 0.00 0.00 0.00 74 1019.7
20180922040117 63 252 1.0 3.0 0.00 0.00 0.00 74 1019.4
20180922035110 64 252 0.0 5.0 0.00 0.00 0.00 73 1019.2
20180922034110 64 244 1.0 3.0 0.00 0.00 0.00 72 1019.1
20180922033111 64 317 1.0 3.0 0.00 0.00 0.00 71 1018.8
20180922032110 64 255 1.0 7.0 0.00 0.00 0.00 70 1018.7
20180922031109 65 249 1.0 5.0 0.00 0.00 0.00 69 1018.5
20180922030116 65 273 1.0 3.0 0.00 0.00 0.00 68 1018.2
20180922025109 65 281 1.0 5.0 0.00 0.00 0.00 68 1018.1
20180922024109 65 313 1.0 3.0 0.00 0.00 0.00 67 1017.9
20180922023110 66 284 0.0 3.0 0.00 0.00 0.00 67 1017.6
20180922022110 66 269 2.0 7.0 0.00 0.00 0.00 65 1017.5
20180922021110 67 245 2.0 6.0 0.00 0.00 0.00 65 1017.5
20180922020116 67 238 2.0 6.0 0.00 0.00 0.00 63 1017.5
20180922015109 67 288 2.0 7.0 0.00 0.00 0.00 63 1017.4
20180922014110 67 240 1.0 5.0 0.00 0.00 0.00 62 1017.1
20180922013109 68 231 3.0 12.0 0.00 0.00 0.00 61 1016.8
20180922012109 68 244 2.0 12.0 0.00 0.00 0.00 62 1016.5
20180922011110 69 246 2.0 9.0 0.00 0.00 0.00 62 1016.1
20180922010116 69 281 1.0 5.0 0.00 0.00 0.00 62 1015.9
20180922005110 70 35 2.0 5.0 0.00 0.00 0.00 63 1015.7
20180922004110 71 288 2.0 5.0 0.00 0.00 0.00 63 1015.2
20180922003109 71 304 2.0 6.0 0.00 0.00 0.00 62 1014.7
20180922002109 72 350 2.0 5.0 0.00 0.00 0.00 61 1014.3
20180922001113 72 236 3.0 13.0 0.00 0.00 0.00 60 1013.8
20180922000116 73 336 2.0 16.0 0.00 0.00 0.00 60 1013.3
20180921235110 73 345 2.0 13.0 0.00 0.00 0.00 59 1012.8
20180921234110 74 347 3.0 13.0 0.00 0.00 0.00 56 1012.5
20180921233110 75 245 3.0 14.0 0.00 0.00 0.00 52 1012.1
20180921232110 76 299 3.0 12.0 0.00 0.00 0.00 51 1011.7
20180921231110 77 0 2.0 10.0 0.00 0.00 0.00 51 1011.6
20180921230116 78 272 4.0 15.0 0.00 0.00 0.00 50 1011.2
20180921225109 79 334 1.0 7.0 0.00 0.00 0.00 54 1010.9
20180921224110 80 312 3.0 12.0 0.00 0.00 0.00 51 1010.3
20180921223110 81 259 3.0 13.0 0.00 0.00 0.00 50 1010.0
20180921222109 81 284 2.0 17.0 0.00 0.00 0.00 50 1009.7
20180921221110 82 259 2.0 13.0 0.00 0.00 0.00 49 1009.5
20180921220117 82 257 3.0 16.0 0.00 0.00 0.00 48 1009.5
20180921215109 82 266 3.0 14.0 0.00 0.00 0.00 47 1009.5
20180921214110 82 239 3.0 12.0 0.00 0.00 0.00 48 1009.4
20180921213110 82 305 2.0 12.0 0.00 0.00 0.00 52 1009.1
20180921212110 83 253 5.0 16.0 0.00 0.00 0.00 49 1008.9